Time,TemperatureF,DewpointF,PressureIn,WindDirection,WindDirectionDegrees,WindSpeedMPH,WindSpeedGustMPH,Humidity,HourlyPrecipIn,Conditions,Clouds,dailyrainin,SoftwareType,DateUTC
2013-09-17 00:00:00,59.0,52.5,28.00,NNW,342,3.0,7.0,79,0.00,,---,0.00,VWS V14.00,2013-09-17 04:00:00,
2013-09-17 00:01:00,59.0,52.8,28.00,NNW,336,3.0,7.0,80,0.00,,---,0.00,VWS V14.00,2013-09-17 04:01:00,
2013-09-17 00:02:00,59.0,52.8,28.00,North,5,5.0,7.0,80,0.00,,---,0.00,VWS V14.00,2013-09-17 04:02:00,
2013-09-17 00:04:00,59.0,52.8,28.00,NNW,330,2.0,7.0,80,0.00,,---,0.00,VWS V14.00,2013-09-17 04:04:00,
2013-09-17 00:05:00,59.0,52.8,28.00,NNW,331,3.0,7.0,80,0.00,,---,0.00,VWS V14.00,2013-09-17 04:05:00,
2013-09-17 00:08:00,59.0,52.8,28.00,NW,323,4.0,6.0,80,0.00,,---,0.00,VWS V14.00,2013-09-17 04:08:00,
2013-09-17 00:14:00,59.0,52.8,28.00,NNW,348,3.0,10.0,80,0.00,,---,0.00,VWS V14.00,2013-09-17 04:14:00,
2013-09-17 00:19:00,59.0,52.8,28.00,NNW,345,5.0,10.0,80,0.00,,---,0.00,VWS V14.00,2013-09-17 04:19:00,
2013-09-17 00:24:00,59.0,52.8,28.00,NNW,337,5.0,10.0,80,0.00,,---,0.00,VWS V14.00,2013-09-17 04:24:00,
2013-09-17 00:29:00,59.0,52.8,28.00,North,351,4.0,10.0,80,0.00,,---,0.00,VWS V14.00,2013-09-17 04:29:00,
2013-09-17 00:34:00,59.0,52.8,28.45,North,350,5.0,10.0,80,0.00,,---,0.00,VWS V14.00,2013-09-17 04:34:00,
2013-09-17 00:39:00,59.0,52.8,28.45,North,355,5.0,6.0,80,0.00,,---,0.00,VWS V14.00,2013-09-17 04:39:00,
2013-09-17 00:44:00,59.0,52.8,28.45,NNW,348,8.0,10.0,80,0.00,,---,0.00,VWS V14.00,2013-09-17 04:44:00,
2013-09-17 00:49:00,59.0,52.8,28.45,North,355,6.0,10.0,80,0.00,,---,0.00,VWS V14.00,2013-09-17 04:49:00,
2013-09-17 00:54:00,59.0,52.8,28.45,North,360,5.0,10.0,80,0.00,,---,0.00,VWS V14.00,2013-09-17 04:54:00,
2013-09-17 00:59:00,59.0,52.8,28.45,North,360,3.0,10.0,80,0.00,,---,0.00,VWS V14.00,2013-09-17 04:59:00,
2013-09-17 01:04:00,59.0,52.8,28.45,NNW,342,5.0,10.0,80,0.00,,---,0.00,VWS V14.00,2013-09-17 05:04:00,
2013-09-17 01:09:00,59.0,52.8,28.45,WNW,296,4.0,8.0,80,0.00,,---,0.00,VWS V14.00,2013-09-17 05:09:00,
2013-09-17 01:14:00,59.0,52.5,28.45,NNW,344,5.0,8.0,79,0.00,,---,0.00,VWS V14.00,2013-09-17 05:14:00,
2013-09-17 01:19:00,59.0,52.8,28.45,NNE,14,4.0,8.0,80,0.00,,---,0.00,VWS V14.00,2013-09-17 05:19:00,
2013-09-17 01:24:00,59.0,52.8,28.50,NNE,28,4.0,9.0,80,0.00,,---,0.00,VWS V14.00,2013-09-17 05:24:00,
2013-09-17 01:29:00,59.0,52.8,26.27,NNW,345,8.0,10.0,80,0.00,,---,0.00,VWS V14.00,2013-09-17 05:29:00,
2013-09-17 01:34:00,59.0,52.5,26.27,NNE,15,4.0,10.0,79,0.00,,---,0.00,VWS V14.00,2013-09-17 05:34:00,
2013-09-17 01:39:00,59.0,52.8,26.27,North,360,5.0,10.0,80,0.00,,---,0.00,VWS V14.00,2013-09-17 05:39:00,
2013-09-17 01:44:00,59.4,53.2,26.27,NNW,328,4.0,11.0,80,0.00,,---,0.00,VWS V14.00,2013-09-17 05:44:00,
2013-09-17 01:50:00,59.7,53.5,26.27,NNE,22,8.0,11.0,80,0.00,,---,0.00,VWS V14.00,2013-09-17 05:50:00,
2013-09-17 01:55:00,59.9,53.7,26.27,North,5,4.0,12.0,80,0.00,,---,0.00,VWS V14.00,2013-09-17 05:55:00,
2013-09-17 02:00:00,60.1,53.6,26.27,NNE,30,6.0,15.0,79,0.00,,---,0.00,VWS V14.00,2013-09-17 06:00:00,
2013-09-17 02:05:00,60.1,53.6,27.99,NNE,24,11.0,15.0,79,0.00,,---,0.00,VWS V14.00,2013-09-17 06:05:00,
2013-09-17 02:10:00,60.3,53.8,27.99,NNE,28,7.0,11.0,79,0.00,,---,0.00,VWS V14.00,2013-09-17 06:10:00,
2013-09-17 02:15:00,60.2,53.0,27.81,NNE,19,6.0,11.0,77,0.00,,---,0.00,VWS V14.00,2013-09-17 06:15:00,
2013-09-17 02:20:00,60.0,53.1,27.81,North,5,5.0,11.0,78,0.00,,---,0.00,VWS V14.00,2013-09-17 06:20:00,
2013-09-17 02:25:00,60.1,53.6,27.81,NNE,21,3.0,12.0,79,0.00,,---,0.00,VWS V14.00,2013-09-17 06:25:00,
2013-09-17 02:30:00,60.3,53.8,27.25,North,5,6.0,12.0,79,0.00,,---,0.00,VWS V14.00,2013-09-17 06:30:00,
2013-09-17 02:35:00,60.2,53.7,27.01,NNE,18,6.0,12.0,79,0.00,,---,0.00,VWS V14.00,2013-09-17 06:35:00,
2013-09-17 02:40:00,60.3,54.1,27.01,NNE,23,3.0,8.0,80,0.00,,---,0.00,VWS V14.00,2013-09-17 06:40:00,
2013-09-17 02:45:00,60.1,53.6,27.01,North,5,3.0,10.0,79,0.00,,---,0.00,VWS V14.00,2013-09-17 06:45:00,
2013-09-17 02:50:00,60.0,53.5,27.01,NNW,338,4.0,10.0,79,0.00,,---,0.00,VWS V14.00,2013-09-17 06:50:00,
2013-09-17 02:55:00,60.2,54.0,27.24,NNE,26,4.0,11.0,80,0.00,,---,0.00,VWS V14.00,2013-09-17 06:55:00,
2013-09-17 03:00:00,60.2,53.3,27.24,NNW,332,5.0,14.0,78,0.00,,---,0.00,VWS V14.00,2013-09-17 07:00:00,
2013-09-17 03:05:00,60.2,53.7,27.40,NE,38,4.0,14.0,79,0.00,,---,0.00,VWS V14.00,2013-09-17 07:05:00,
2013-09-17 03:10:00,60.2,54.0,27.56,NNE,28,8.0,13.0,80,0.00,,---,0.00,VWS V14.00,2013-09-17 07:10:00,
2013-09-17 03:15:00,60.0,53.5,27.56,NW,314,0.0,13.0,79,0.00,,---,0.00,VWS V14.00,2013-09-17 07:15:00,
2013-09-17 03:20:00,59.8,53.6,27.56,NNE,15,3.0,13.0,80,0.00,,---,0.00,VWS V14.00,2013-09-17 07:20:00,
2013-09-17 03:26:00,59.4,53.2,27.56,ENE,75,1.0,13.0,80,0.00,,---,0.00,VWS V14.00,2013-09-17 07:26:00,
2013-09-17 03:31:00,59.0,52.8,27.56,NNW,348,0.0,13.0,80,0.00,,---,0.00,VWS V14.00,2013-09-17 07:31:00,
2013-09-17 03:36:00,59.0,52.8,27.56,NNW,346,1.0,13.0,80,0.00,,---,0.00,VWS V14.00,2013-09-17 07:36:00,
2013-09-17 03:41:00,59.0,53.2,27.56,North,350,3.0,6.0,81,0.00,,---,0.00,VWS V14.00,2013-09-17 07:41:00,
2013-09-17 03:46:00,58.8,53.0,29.19,NNW,346,4.0,6.0,81,0.00,,---,0.00,VWS V14.00,2013-09-17 07:46:00,
2013-09-17 03:51:00,58.9,53.1,29.19,NW,313,0.0,10.0,81,0.00,,---,0.00,VWS V14.00,2013-09-17 07:51:00,
2013-09-17 03:56:00,58.4,52.3,29.19,WNW,293,1.0,10.0,80,0.00,,---,0.00,VWS V14.00,2013-09-17 07:56:00,
2013-09-17 04:01:00,57.8,51.7,29.19,WNW,292,3.0,10.0,80,0.00,,---,0.00,VWS V14.00,2013-09-17 08:01:00,
2013-09-17 04:06:00,57.5,51.7,29.19,NNW,348,0.0,10.0,81,0.00,,---,0.00,VWS V14.00,2013-09-17 08:06:00,
2013-09-17 04:11:00,57.4,51.6,29.19,NW,315,0.0,5.0,81,0.00,,---,0.00,VWS V14.00,2013-09-17 08:11:00,
2013-09-17 04:16:00,57.4,51.6,28.91,NNW,346,2.0,6.0,81,0.00,,---,0.00,VWS V14.00,2013-09-17 08:16:00,
2013-09-17 04:21:00,57.2,51.8,29.05,NNW,341,0.0,6.0,82,0.00,,---,0.00,VWS V14.00,2013-09-17 08:21:00,
2013-09-17 04:26:00,57.2,51.8,29.05,NNW,329,0.0,6.0,82,0.00,,---,0.00,VWS V14.00,2013-09-17 08:26:00,
2013-09-17 04:31:00,57.3,52.2,29.05,NNE,18,0.0,6.0,83,0.00,,---,0.00,VWS V14.00,2013-09-17 08:31:00,
2013-09-17 04:36:00,57.6,52.5,29.05,ENE,57,5.0,7.0,83,0.00,,---,0.00,VWS V14.00,2013-09-17 08:36:00,
2013-09-17 04:41:00,57.6,52.2,29.05,NNW,333,0.0,4.0,82,0.00,,---,0.00,VWS V14.00,2013-09-17 08:41:00,
2013-09-17 04:46:00,57.6,52.2,29.05,NNW,346,0.0,11.0,82,0.00,,---,0.00,VWS V14.00,2013-09-17 08:46:00,
2013-09-17 04:51:00,57.4,52.0,29.05,ENE,75,4.0,11.0,82,0.00,,---,0.00,VWS V14.00,2013-09-17 08:51:00,
2013-09-17 04:56:00,57.8,52.7,29.05,North,355,9.0,11.0,83,0.00,,---,0.00,VWS V14.00,2013-09-17 08:56:00,
2013-09-17 05:01:00,57.7,51.9,29.05,NE,40,6.0,11.0,81,0.00,,---,0.00,VWS V14.00,2013-09-17 09:01:00,
2013-09-17 05:06:00,57.9,52.5,29.25,NW,319,0.0,11.0,82,0.00,,---,0.00,VWS V14.00,2013-09-17 09:06:00,
2013-09-17 05:11:00,57.4,52.0,29.25,NE,38,2.0,6.0,82,0.00,,---,0.00,VWS V14.00,2013-09-17 09:11:00,
2013-09-17 05:17:00,57.1,51.7,29.25,North,360,3.0,6.0,82,0.00,,---,0.00,VWS V14.00,2013-09-17 09:17:00,
2013-09-17 05:22:00,56.7,51.3,29.25,NNW,332,2.0,6.0,82,0.00,,---,0.00,VWS V14.00,2013-09-17 09:22:00,
2013-09-17 05:27:00,56.6,51.2,29.26,NNW,332,0.0,6.0,82,0.00,,---,0.00,VWS V14.00,2013-09-17 09:27:00,
2013-09-17 05:32:00,56.4,51.0,29.41,NNW,332,2.0,6.0,82,0.00,,---,0.00,VWS V14.00,2013-09-17 09:32:00,
2013-09-17 05:37:00,56.2,50.8,29.41,WNW,292,1.0,6.0,82,0.00,,---,0.00,VWS V14.00,2013-09-17 09:37:00,
2013-09-17 05:42:00,56.0,50.9,29.41,WNW,292,0.0,3.0,83,0.00,,---,0.00,VWS V14.00,2013-09-17 09:42:00,
2013-09-17 05:47:00,56.0,50.9,29.41,West,272,0.0,4.0,83,0.00,,---,0.00,VWS V14.00,2013-09-17 09:47:00,
2013-09-17 05:52:00,55.9,50.8,29.41,East,84,7.0,7.0,83,0.00,,---,0.00,VWS V14.00,2013-09-17 09:52:00,
2013-09-17 05:57:00,56.5,52.0,29.41,North,360,2.0,9.0,85,0.00,,---,0.00,VWS V14.00,2013-09-17 09:57:00,
2013-09-17 06:02:00,57.2,52.7,29.41,NNE,29,6.0,11.0,85,0.00,,---,0.00,VWS V14.00,2013-09-17 10:02:00,
2013-09-17 06:07:00,57.2,52.4,29.41,NE,44,14.0,14.0,84,0.00,,---,0.00,VWS V14.00,2013-09-17 10:07:00,
2013-09-17 06:12:00,57.3,52.5,29.41,ENE,59,9.0,14.0,84,0.00,,---,0.00,VWS V14.00,2013-09-17 10:12:00,
2013-09-17 06:17:00,57.2,52.4,29.41,NE,55,8.0,14.0,84,0.00,,---,0.00,VWS V14.00,2013-09-17 10:17:00,
2013-09-17 06:22:00,57.4,52.9,29.41,NE,45,11.0,14.0,85,0.00,,---,0.00,VWS V14.00,2013-09-17 10:22:00,
2013-09-17 06:27:00,57.2,52.4,29.41,ENE,57,14.0,14.0,84,0.00,,---,0.00,VWS V14.00,2013-09-17 10:27:00,
2013-09-17 06:32:00,57.4,52.9,29.41,NE,36,9.0,14.0,85,0.00,,---,0.00,VWS V14.00,2013-09-17 10:32:00,
2013-09-17 06:37:00,57.0,52.2,32.39,NE,34,11.0,11.0,84,0.00,,---,0.00,VWS V14.00,2013-09-17 10:37:00,
2013-09-17 06:42:00,56.9,52.1,32.39,NNW,344,6.0,16.0,84,0.00,,---,0.00,VWS V14.00,2013-09-17 10:42:00,
2013-09-17 06:48:00,57.0,52.2,32.39,NNE,28,12.0,16.0,84,0.00,,---,0.00,VWS V14.00,2013-09-17 10:48:00,
2013-09-17 06:53:00,56.8,52.0,32.39,NE,40,13.0,16.0,84,0.00,,---,0.00,VWS V14.00,2013-09-17 10:53:00,
2013-09-17 06:58:00,56.8,52.0,32.39,NNE,33,11.0,16.0,84,0.00,,---,0.00,VWS V14.00,2013-09-17 10:58:00,
2013-09-17 07:03:00,56.9,52.1,28.90,NE,49,11.0,16.0,84,0.00,,---,0.00,VWS V14.00,2013-09-17 11:03:00,
2013-09-17 07:08:00,57.0,52.5,28.90,NE,42,11.0,13.0,85,0.00,,---,0.00,VWS V14.00,2013-09-17 11:08:00,
2013-09-17 07:13:00,56.9,52.1,28.90,NE,51,12.0,13.0,84,0.00,,---,0.00,VWS V14.00,2013-09-17 11:13:00,
2013-09-17 07:18:00,56.9,52.4,28.90,NNE,31,10.0,14.0,85,0.00,,---,0.00,VWS V14.00,2013-09-17 11:18:00,
2013-09-17 07:23:00,57.0,52.5,29.22,North,9,12.0,14.0,85,0.00,,---,0.00,VWS V14.00,2013-09-17 11:23:00,
2013-09-17 07:28:00,56.9,52.4,29.25,East,85,5.0,14.0,85,0.00,,---,0.00,VWS V14.00,2013-09-17 11:28:00,
2013-09-17 07:33:00,57.1,52.6,29.25,NE,34,7.0,14.0,85,0.00,,---,0.00,VWS V14.00,2013-09-17 11:33:00,
2013-09-17 07:38:00,56.8,52.0,29.18,NE,51,5.0,8.0,84,0.00,,---,0.00,VWS V14.00,2013-09-17 11:38:00,
2013-09-17 07:43:00,56.8,52.0,29.18,ENE,72,7.0,12.0,84,0.00,,---,0.00,VWS V14.00,2013-09-17 11:43:00,
2013-09-17 07:48:00,56.9,52.4,29.18,NNE,22,6.0,12.0,85,0.00,,---,0.00,VWS V14.00,2013-09-17 11:48:00,
2013-09-17 07:53:00,57.2,52.7,29.24,ENE,66,3.0,12.0,85,0.00,,---,0.00,VWS V14.00,2013-09-17 11:53:00,
2013-09-17 07:58:00,57.2,52.7,29.24,NNE,24,6.0,12.0,85,0.00,,---,0.00,VWS V14.00,2013-09-17 11:58:00,
2013-09-17 08:03:00,57.0,52.2,29.24,North,360,4.0,12.0,84,0.00,,---,0.00,VWS V14.00,2013-09-17 12:03:00,
2013-09-17 08:08:00,56.9,52.1,29.24,NNE,24,4.0,6.0,84,0.00,,---,0.00,VWS V14.00,2013-09-17 12:08:00,
2013-09-17 08:14:00,56.8,52.0,29.24,North,10,5.0,9.0,84,0.00,,---,0.00,VWS V14.00,2013-09-17 12:14:00,
2013-09-17 08:19:00,56.9,52.1,29.24,NNE,30,3.0,9.0,84,0.00,,---,0.00,VWS V14.00,2013-09-17 12:19:00,
2013-09-17 08:24:00,57.1,52.3,29.24,NNE,29,5.0,10.0,84,0.00,,---,0.00,VWS V14.00,2013-09-17 12:24:00,
2013-09-17 08:29:00,56.9,52.1,29.24,NE,46,4.0,12.0,84,0.00,,---,0.00,VWS V14.00,2013-09-17 12:29:00,
2013-09-17 08:34:00,56.9,52.1,29.24,NE,52,10.0,12.0,84,0.00,,---,0.00,VWS V14.00,2013-09-17 12:34:00,
2013-09-17 08:39:00,56.8,52.0,29.24,NE,44,11.0,11.0,84,0.00,,---,0.00,VWS V14.00,2013-09-17 12:39:00,
2013-09-17 08:44:00,57.1,52.0,29.24,NE,54,11.0,14.0,83,0.00,,---,0.00,VWS V14.00,2013-09-17 12:44:00,
2013-09-17 08:49:00,57.0,51.9,29.24,NNE,31,12.0,14.0,83,0.00,,---,0.00,VWS V14.00,2013-09-17 12:49:00,
2013-09-17 08:54:00,57.3,52.5,29.24,NE,53,11.0,15.0,84,0.00,,---,0.00,VWS V14.00,2013-09-17 12:54:00,
2013-09-17 08:59:00,57.3,52.2,28.50,NE,43,13.0,15.0,83,0.00,,---,0.00,VWS V14.00,2013-09-17 12:59:00,
2013-09-17 09:04:00,57.4,52.3,28.50,ENE,59,10.0,15.0,83,0.00,,---,0.00,VWS V14.00,2013-09-17 13:04:00,
2013-09-17 09:09:00,57.2,52.1,28.50,NE,55,8.0,13.0,83,0.00,,---,0.00,VWS V14.00,2013-09-17 13:09:00,
2013-09-17 09:14:00,57.4,52.6,28.50,ENE,59,6.0,13.0,84,0.00,,---,0.00,VWS V14.00,2013-09-17 13:14:00,
2013-09-17 09:19:00,57.4,52.3,28.50,NE,41,7.0,13.0,83,0.00,,---,0.00,VWS V14.00,2013-09-17 13:19:00,
2013-09-17 09:24:00,57.6,52.8,28.50,NNE,33,7.0,13.0,84,0.00,,---,0.00,VWS V14.00,2013-09-17 13:24:00,
2013-09-17 09:30:00,58.0,53.2,28.50,NE,49,7.0,13.0,84,0.00,,---,0.00,VWS V14.00,2013-09-17 13:30:00,
2013-09-17 09:35:00,57.9,52.8,28.50,NE,46,6.0,13.0,83,0.00,,---,0.00,VWS V14.00,2013-09-17 13:35:00,
2013-09-17 09:40:00,57.9,52.8,28.50,NE,55,4.0,10.0,83,0.00,,---,0.00,VWS V14.00,2013-09-17 13:40:00,
2013-09-17 09:45:00,58.2,53.1,28.50,NE,46,11.0,12.0,83,0.00,,---,0.00,VWS V14.00,2013-09-17 13:45:00,
2013-09-17 09:50:00,58.5,53.4,28.50,NE,53,7.0,12.0,83,0.00,,---,0.00,VWS V14.00,2013-09-17 13:50:00,
2013-09-17 09:55:00,59.0,53.8,28.50,NE,34,10.0,12.0,83,0.00,,---,0.00,VWS V14.00,2013-09-17 13:55:00,
2013-09-17 10:00:00,59.0,53.5,28.50,NE,43,8.0,12.0,82,0.00,,---,0.00,VWS V14.00,2013-09-17 14:00:00,
2013-09-17 10:05:00,59.0,53.2,28.50,NE,38,9.0,12.0,81,0.00,,---,0.00,VWS V14.00,2013-09-17 14:05:00,
2013-09-17 10:10:00,59.0,53.2,28.50,NE,34,10.0,10.0,81,0.00,,---,0.00,VWS V14.00,2013-09-17 14:10:00,
2013-09-17 10:15:00,59.0,53.2,28.50,NE,38,6.0,11.0,81,0.00,,---,0.00,VWS V14.00,2013-09-17 14:15:00,
2013-09-17 10:20:00,59.3,53.5,28.50,NE,44,5.0,11.0,81,0.00,,---,0.00,VWS V14.00,2013-09-17 14:20:00,
2013-09-17 10:25:00,59.5,53.7,28.50,NNE,33,10.0,11.0,81,0.00,,---,0.00,VWS V14.00,2013-09-17 14:25:00,
2013-09-17 10:30:00,59.8,54.0,28.50,NE,48,5.0,15.0,81,0.00,,---,0.00,VWS V14.00,2013-09-17 14:30:00,
2013-09-17 10:35:00,59.8,54.0,28.50,NE,45,9.0,15.0,81,0.00,,---,0.00,VWS V14.00,2013-09-17 14:35:00,
2013-09-17 10:40:00,59.8,53.6,28.50,NE,42,10.0,10.0,80,0.00,,---,0.00,VWS V14.00,2013-09-17 14:40:00,
2013-09-17 10:45:00,59.8,53.6,28.50,NE,36,5.0,11.0,80,0.00,,---,0.00,VWS V14.00,2013-09-17 14:45:00,
2013-09-17 10:50:00,60.0,53.8,28.50,NE,47,6.0,12.0,80,0.00,,---,0.00,VWS V14.00,2013-09-17 14:50:00,
2013-09-17 10:55:00,60.3,54.1,28.50,NE,37,10.0,12.0,80,0.00,,---,0.00,VWS V14.00,2013-09-17 14:55:00,
2013-09-17 11:01:00,60.5,54.0,28.50,NE,46,8.0,12.0,79,0.00,,---,0.00,VWS V14.00,2013-09-17 15:01:00,
2013-09-17 11:06:00,60.9,54.3,28.50,NE,40,6.0,12.0,79,0.00,,---,0.00,VWS V14.00,2013-09-17 15:06:00,
2013-09-17 11:11:00,61.0,54.5,28.50,NE,46,8.0,11.0,79,0.00,,---,0.00,VWS V14.00,2013-09-17 15:11:00,
2013-09-17 11:16:00,61.4,54.8,28.50,NE,49,7.0,12.0,79,0.00,,---,0.00,VWS V14.00,2013-09-17 15:16:00,
2013-09-17 11:21:00,61.8,55.2,28.50,NE,36,5.0,12.0,79,0.00,,---,0.00,VWS V14.00,2013-09-17 15:21:00,
2013-09-17 11:26:00,61.9,54.6,28.50,NE,44,8.0,12.0,77,0.00,,---,0.00,VWS V14.00,2013-09-17 15:26:00,
2013-09-17 11:31:00,62.0,55.1,28.50,NE,37,10.0,12.0,78,0.00,,---,0.00,VWS V14.00,2013-09-17 15:31:00,
2013-09-17 11:36:00,62.5,55.9,28.50,NE,49,10.0,12.0,79,0.00,,---,0.00,VWS V14.00,2013-09-17 15:36:00,
2013-09-17 11:41:00,62.7,55.4,28.50,NE,52,6.0,10.0,77,0.00,,---,0.00,VWS V14.00,2013-09-17 15:41:00,
2013-09-17 11:46:00,63.1,55.8,28.50,NE,47,9.0,11.0,77,0.00,,---,0.00,VWS V14.00,2013-09-17 15:46:00,
2013-09-17 11:51:00,63.3,55.6,28.50,NNE,33,6.0,11.0,76,0.00,,---,0.00,VWS V14.00,2013-09-17 15:51:00,
2013-09-17 11:56:00,63.6,56.3,28.50,ENE,59,6.0,11.0,77,0.00,,---,0.00,VWS V14.00,2013-09-17 15:56:00,
2013-09-17 12:01:00,64.1,56.4,28.50,NE,39,5.0,11.0,76,0.00,,---,0.00,VWS V14.00,2013-09-17 16:01:00,
2013-09-17 12:06:00,64.3,55.8,28.50,NE,53,5.0,11.0,74,0.00,,---,0.00,VWS V14.00,2013-09-17 16:06:00,
2013-09-17 12:11:00,64.5,56.0,28.50,ENE,63,6.0,11.0,74,0.00,,---,0.00,VWS V14.00,2013-09-17 16:11:00,
2013-09-17 12:16:00,64.8,56.0,28.50,NE,54,6.0,12.0,73,0.00,,---,0.00,VWS V14.00,2013-09-17 16:16:00,
2013-09-17 12:21:00,65.0,56.2,28.50,NE,55,6.0,12.0,73,0.00,,---,0.00,VWS V14.00,2013-09-17 16:21:00,
2013-09-17 12:27:00,65.4,56.2,28.50,ENE,68,5.0,12.0,72,0.00,,---,0.00,VWS V14.00,2013-09-17 16:27:00,
2013-09-17 12:32:00,65.8,55.4,28.50,East,80,3.0,12.0,69,0.00,,---,0.00,VWS V14.00,2013-09-17 16:32:00,
2013-09-17 12:37:00,66.3,55.8,28.50,ENE,75,9.0,12.0,69,0.00,,---,0.00,VWS V14.00,2013-09-17 16:37:00,
2013-09-17 12:42:00,66.6,55.7,28.50,East,84,5.0,10.0,68,0.00,,---,0.00,VWS V14.00,2013-09-17 16:42:00,
2013-09-17 12:47:00,66.7,56.2,28.50,NE,49,7.0,11.0,69,0.00,,---,0.00,VWS V14.00,2013-09-17 16:47:00,
2013-09-17 12:52:00,66.7,56.6,28.50,NE,37,5.0,11.0,70,0.00,,---,0.00,VWS V14.00,2013-09-17 16:52:00,
2013-09-17 12:57:00,66.8,55.9,28.50,ENE,57,4.0,11.0,68,0.00,,---,0.00,VWS V14.00,2013-09-17 16:57:00,
2013-09-17 13:02:00,67.0,56.5,28.50,NNE,30,5.0,11.0,69,0.00,,---,0.00,VWS V14.00,2013-09-17 17:02:00,
2013-09-17 13:07:00,67.0,56.1,28.50,NE,51,6.0,11.0,68,0.00,,---,0.00,VWS V14.00,2013-09-17 17:07:00,
2013-09-17 13:12:00,67.3,56.4,28.50,NE,41,12.0,12.0,68,0.00,,---,0.00,VWS V14.00,2013-09-17 17:12:00,
2013-09-17 13:17:00,67.6,57.1,28.50,NE,44,10.0,12.0,69,0.00,,---,0.00,VWS V14.00,2013-09-17 17:17:00,
2013-09-17 13:22:00,67.7,56.4,28.50,NE,34,5.0,12.0,67,0.00,,---,0.00,VWS V14.00,2013-09-17 17:22:00,
2013-09-17 13:27:00,67.9,56.1,28.50,NE,39,8.0,13.0,66,0.00,,---,0.00,VWS V14.00,2013-09-17 17:27:00,
2013-09-17 13:32:00,68.0,56.7,28.50,NE,42,10.0,13.0,67,0.00,,---,0.00,VWS V14.00,2013-09-17 17:32:00,
2013-09-17 13:37:00,68.3,56.1,28.50,NE,51,6.0,6.0,65,0.00,,---,0.00,VWS V14.00,2013-09-17 17:37:00,
2013-09-17 13:42:00,68.6,55.5,28.50,ENE,65,9.0,11.0,63,0.00,,---,0.00,VWS V14.00,2013-09-17 17:42:00,
2013-09-17 13:47:00,68.8,55.7,28.50,NE,53,9.0,12.0,63,0.00,,---,0.00,VWS V14.00,2013-09-17 17:47:00,
2013-09-17 13:53:00,69.0,55.9,28.50,NE,37,8.0,12.0,63,0.00,,---,0.00,VWS V14.00,2013-09-17 17:53:00,
2013-09-17 13:58:00,69.2,55.6,28.50,ENE,60,11.0,12.0,62,0.00,,---,0.00,VWS V14.00,2013-09-17 17:58:00,
2013-09-17 14:03:00,69.4,55.8,28.50,East,86,4.0,12.0,62,0.00,,---,0.00,VWS V14.00,2013-09-17 18:03:00,
2013-09-17 14:08:00,69.5,55.9,28.50,ENE,59,4.0,6.0,62,0.00,,---,0.00,VWS V14.00,2013-09-17 18:08:00,
2013-09-17 14:13:00,69.8,56.2,28.50,ENE,58,2.0,6.0,62,0.00,,---,0.00,VWS V14.00,2013-09-17 18:13:00,
2013-09-17 14:18:00,70.0,55.0,28.50,NE,41,8.0,9.0,59,0.00,,---,0.00,VWS V14.00,2013-09-17 18:18:00,
2013-09-17 14:23:00,70.1,55.6,28.50,NE,53,4.0,9.0,60,0.00,,---,0.00,VWS V14.00,2013-09-17 18:23:00,
2013-09-17 14:28:00,70.3,55.8,28.50,ENE,63,5.0,9.0,60,0.00,,---,0.00,VWS V14.00,2013-09-17 18:28:00,
2013-09-17 14:33:00,70.5,56.0,28.50,NE,37,5.0,9.0,60,0.00,,---,0.00,VWS V14.00,2013-09-17 18:33:00,
2013-09-17 14:38:00,70.6,56.5,28.50,ENE,67,3.0,4.0,61,0.00,,---,0.00,VWS V14.00,2013-09-17 18:38:00,
2013-09-17 14:43:00,70.9,57.7,28.50,ENE,76,4.0,10.0,63,0.00,,---,0.00,VWS V14.00,2013-09-17 18:43:00,
2013-09-17 14:48:00,70.9,55.4,28.50,NE,51,9.0,11.0,58,0.00,,---,0.00,VWS V14.00,2013-09-17 18:48:00,
2013-09-17 14:53:00,71.0,55.5,28.50,NE,46,8.0,11.0,58,0.00,,---,0.00,VWS V14.00,2013-09-17 18:53:00,
2013-09-17 14:59:00,71.1,55.6,28.50,NNE,33,4.0,11.0,58,0.00,,---,0.00,VWS V14.00,2013-09-17 18:59:00,
2013-09-17 15:04:00,71.3,54.8,28.50,NE,38,10.0,11.0,56,0.00,,---,0.00,VWS V14.00,2013-09-17 19:04:00,
2013-09-17 15:09:00,71.3,55.8,28.50,NE,40,6.0,6.0,58,0.00,,---,0.00,VWS V14.00,2013-09-17 19:09:00,
2013-09-17 15:14:00,71.4,54.4,28.50,ENE,57,5.0,9.0,55,0.00,,---,0.00,VWS V14.00,2013-09-17 19:14:00,
2013-09-17 15:19:00,71.5,54.0,28.50,NE,34,4.0,9.0,54,0.00,,---,0.00,VWS V14.00,2013-09-17 19:19:00,
2013-09-17 15:24:00,71.7,55.2,28.50,NE,52,0.0,9.0,56,0.00,,---,0.00,VWS V14.00,2013-09-17 19:24:00,
2013-09-17 15:29:00,71.9,55.4,28.50,NE,55,6.0,9.0,56,0.00,,---,0.00,VWS V14.00,2013-09-17 19:29:00,
2013-09-17 15:34:00,71.9,55.4,28.50,ENE,63,9.0,11.0,56,0.00,,---,0.00,VWS V14.00,2013-09-17 19:34:00,
2013-09-17 15:39:00,72.0,54.5,28.50,NE,38,4.0,7.0,54,0.00,,---,0.00,VWS V14.00,2013-09-17 19:39:00,
2013-09-17 15:44:00,72.1,56.5,28.50,NE,49,4.0,7.0,58,0.00,,---,0.00,VWS V14.00,2013-09-17 19:44:00,
2013-09-17 15:49:00,72.1,56.5,28.50,NE,40,6.0,11.0,58,0.00,,---,0.00,VWS V14.00,2013-09-17 19:49:00,
2013-09-17 15:54:00,72.1,55.6,28.50,NE,55,9.0,11.0,56,0.00,,---,0.00,VWS V14.00,2013-09-17 19:54:00,
2013-09-17 15:59:00,72.1,56.0,28.50,ENE,61,5.0,11.0,57,0.00,,---,0.00,VWS V14.00,2013-09-17 19:59:00,
2013-09-17 16:04:00,72.2,55.7,28.50,ENE,59,2.0,11.0,56,0.00,,---,0.00,VWS V14.00,2013-09-17 20:04:00,
2013-09-17 16:09:00,72.4,56.8,28.50,ENE,57,3.0,5.0,58,0.00,,---,0.00,VWS V14.00,2013-09-17 20:09:00,
2013-09-17 16:14:00,72.6,56.0,28.50,East,81,5.0,6.0,56,0.00,,---,0.00,VWS V14.00,2013-09-17 20:14:00,
2013-09-17 16:19:00,72.6,55.5,28.50,East,87,3.0,9.0,55,0.00,,---,0.00,VWS V14.00,2013-09-17 20:19:00,
2013-09-17 16:24:00,72.6,55.5,28.50,ENE,63,5.0,9.0,55,0.00,,---,0.00,VWS V14.00,2013-09-17 20:24:00,
2013-09-17 16:29:00,72.6,56.0,28.50,East,82,4.0,9.0,56,0.00,,---,0.00,VWS V14.00,2013-09-17 20:29:00,
2013-09-17 16:35:00,72.7,55.6,28.50,ENE,70,3.0,9.0,55,0.00,,---,0.00,VWS V14.00,2013-09-17 20:35:00,
2013-09-17 16:40:00,72.8,55.7,28.50,ENE,78,2.0,5.0,55,0.00,,---,0.00,VWS V14.00,2013-09-17 20:40:00,
2013-09-17 16:45:00,72.9,55.8,28.50,East,82,3.0,9.0,55,0.00,,---,0.00,VWS V14.00,2013-09-17 20:45:00,
2013-09-17 16:50:00,72.8,57.2,28.50,SE,138,4.0,9.0,58,0.00,,---,0.00,VWS V14.00,2013-09-17 20:50:00,
2013-09-17 16:55:00,72.7,56.6,28.50,ESE,121,5.0,9.0,57,0.00,,---,0.00,VWS V14.00,2013-09-17 20:55:00,
2013-09-17 17:00:00,72.9,54.8,28.50,East,96,4.0,9.0,53,0.00,,---,0.00,VWS V14.00,2013-09-17 21:00:00,
2013-09-17 17:05:00,73.0,54.9,28.50,ESE,123,6.0,10.0,53,0.00,,---,0.00,VWS V14.00,2013-09-17 21:05:00,
2013-09-17 17:10:00,73.0,56.4,28.50,East,95,3.0,9.0,56,0.00,,---,0.00,VWS V14.00,2013-09-17 21:10:00,
2013-09-17 17:15:00,73.1,57.5,28.50,East,101,5.0,9.0,58,0.00,,---,0.00,VWS V14.00,2013-09-17 21:15:00,
2013-09-17 17:21:00,73.1,55.0,28.50,East,94,4.0,9.0,53,0.00,,---,0.00,VWS V14.00,2013-09-17 21:21:00,
2013-09-17 17:26:00,73.1,56.5,28.50,East,94,1.0,9.0,56,0.00,,---,0.00,VWS V14.00,2013-09-17 21:26:00,
2013-09-17 17:31:00,73.1,57.0,28.50,East,94,4.0,9.0,57,0.00,,---,0.00,VWS V14.00,2013-09-17 21:31:00,
2013-09-17 17:37:00,73.1,55.5,28.50,East,84,4.0,9.0,54,0.00,,---,0.00,VWS V14.00,2013-09-17 21:37:00,
2013-09-17 17:42:00,73.1,56.0,28.50,East,92,4.0,5.0,55,0.00,,---,0.00,VWS V14.00,2013-09-17 21:42:00,
2013-09-17 17:47:00,73.1,56.0,28.50,East,90,5.0,6.0,55,0.00,,---,0.00,VWS V14.00,2013-09-17 21:47:00,
2013-09-17 17:52:00,73.0,56.4,28.50,East,91,3.0,6.0,56,0.00,,---,0.00,VWS V14.00,2013-09-17 21:52:00,
2013-09-17 17:57:00,72.9,55.8,30.63,East,90,3.0,6.0,55,0.00,,---,0.00,VWS V14.00,2013-09-17 21:57:00,
2013-09-17 18:02:00,72.9,56.8,30.63,East,90,0.0,6.0,57,0.00,,---,0.00,VWS V14.00,2013-09-17 22:02:00,
2013-09-17 18:07:00,73.0,55.4,30.63,East,90,2.0,6.0,54,0.00,,---,0.00,VWS V14.00,2013-09-17 22:07:00,
2013-09-17 18:12:00,73.2,55.6,30.63,East,90,1.0,3.0,54,0.00,,---,0.00,VWS V14.00,2013-09-17 22:12:00,
2013-09-17 18:17:00,73.3,57.2,30.63,East,90,0.0,3.0,57,0.00,,---,0.00,VWS V14.00,2013-09-17 22:17:00,
2013-09-17 18:22:00,73.2,56.6,30.63,East,90,2.0,4.0,56,0.00,,---,0.00,VWS V14.00,2013-09-17 22:22:00,
2013-09-17 18:27:00,73.2,56.1,30.63,East,92,3.0,4.0,55,0.00,,---,0.00,VWS V14.00,2013-09-17 22:27:00,
2013-09-17 18:32:00,73.2,56.6,30.63,East,93,3.0,5.0,56,0.00,,---,0.00,VWS V14.00,2013-09-17 22:32:00,
2013-09-17 18:38:00,73.1,57.0,30.63,East,92,0.0,3.0,57,0.00,,---,0.00,VWS V14.00,2013-09-17 22:38:00,
2013-09-17 18:43:00,72.9,56.8,30.63,East,94,2.0,5.0,57,0.00,,---,0.00,VWS V14.00,2013-09-17 22:43:00,
2013-09-17 18:48:00,72.8,56.2,30.63,East,94,3.0,5.0,56,0.00,,---,0.00,VWS V14.00,2013-09-17 22:48:00,
2013-09-17 18:53:00,72.8,58.1,30.63,East,93,2.0,5.0,60,0.00,,---,0.00,VWS V14.00,2013-09-17 22:53:00,
2013-09-17 18:58:00,72.7,57.6,30.63,East,93,3.0,5.0,59,0.00,,---,0.00,VWS V14.00,2013-09-17 22:58:00,
2013-09-17 19:03:00,72.5,57.4,30.63,East,93,1.0,5.0,59,0.00,,---,0.00,VWS V14.00,2013-09-17 23:03:00,
2013-09-17 19:08:00,72.5,57.4,30.63,ENE,72,3.0,5.0,59,0.00,,---,0.00,VWS V14.00,2013-09-17 23:08:00,
2013-09-17 19:13:00,72.1,58.8,30.63,ENE,74,2.0,5.0,63,0.00,,---,0.00,VWS V14.00,2013-09-17 23:13:00,
2013-09-17 19:19:00,70.7,58.4,30.63,NE,37,0.0,5.0,65,0.00,,---,0.00,VWS V14.00,2013-09-17 23:19:00,
2013-09-17 19:24:00,69.0,57.6,30.63,NE,37,0.0,5.0,67,0.00,,---,0.00,VWS V14.00,2013-09-17 23:24:00,
2013-09-17 19:29:00,67.9,57.4,30.63,NE,37,0.0,5.0,69,0.00,,---,0.00,VWS V14.00,2013-09-17 23:29:00,
2013-09-17 19:34:00,67.3,57.6,30.63,NE,37,0.0,5.0,71,0.00,,---,0.00,VWS V14.00,2013-09-17 23:34:00,
2013-09-17 19:39:00,67.1,57.8,30.63,NE,37,2.0,3.0,72,0.00,,---,0.00,VWS V14.00,2013-09-17 23:39:00,
2013-09-17 19:44:00,66.7,58.2,30.63,NE,37,0.0,3.0,74,0.00,,---,0.00,VWS V14.00,2013-09-17 23:44:00,
2013-09-17 19:49:00,66.7,58.5,30.63,NE,37,0.0,3.0,75,0.00,,---,0.00,VWS V14.00,2013-09-17 23:49:00,
2013-09-17 19:54:00,66.6,58.4,30.63,NE,37,0.0,3.0,75,0.00,,---,0.00,VWS V14.00,2013-09-17 23:54:00,
2013-09-17 19:59:00,66.5,58.7,30.63,NE,37,0.0,3.0,76,0.00,,---,0.00,VWS V14.00,2013-09-17 23:59:00,
2013-09-17 20:05:00,66.4,59.0,30.63,NE,37,0.0,3.0,77,0.00,,---,0.00,VWS V14.00,2013-09-18 00:05:00,